KB2JB Weather Reports


Display with metric or nautical units.
time (UTC)temp
F
wind
direction
speed
MPH
gust
MPH
rain 1hr
in
rain 24hr
in
rain mn
in
humidity
%
barometer
mb
20190616122811 64 0.0 0.0 0.00 0.06 0.06 96 1010.8
20190616121808 63 0.0 0.0 0.00 0.06 0.06 97 1010.9
20190616120807 63 0.0 0.0 0.00 0.06 0.06 98 1010.9
20190616115806 63 0.0 0.0 0.00 0.06 0.06 98 1010.9
20190616114805 62 0.0 0.0 0.00 0.06 0.06 98 1011.0
20190616113809 62 0.0 0.0 0.00 0.06 0.06 98 1010.8
20190616112814 62 0.0 0.0 0.00 0.06 0.06 98 1010.8
20190616111819 61 0.0 0.0 0.02 0.06 0.06 98 1010.9
20190616110805 61 0.0 0.0 0.03 0.06 0.06 98 1010.9
20190616105810 61 0.0 0.0 0.03 0.06 0.06 98 1010.9
20190616104815 61 0.0 0.0 0.03 0.06 0.06 98 1011.0
20190616103820 61 0.0 0.0 0.03 0.06 0.06 98 1011.1
20190616102806 61 0.0 0.0 0.03 0.06 0.06 98 1011.1
20190616101811 61 0.0 0.0 0.00 0.03 0.03 98 1011.2
20190616100816 61 0.0 0.0 0.00 0.03 0.03 98 1011.2
20190616095821 61 0.0 0.0 0.00 0.03 0.03 98 1011.1
20190616094807 61 0.0 0.0 0.01 0.03 0.03 98 1011.0
20190616093812 61 0.0 0.0 0.01 0.03 0.03 98 1010.9
20190616092816 61 0.0 0.0 0.01 0.03 0.03 98 1010.8
20190616091821 61 0.0 0.0 0.01 0.03 0.03 98 1010.9
20190616090808 61 0.0 0.0 0.01 0.03 0.03 98 1010.8
20190616085806 61 0.0 0.0 0.01 0.03 0.03 98 1010.8
20190616084811 61 0.0 0.0 0.00 0.01 0.01 98 1010.8
20190616083816 61 0.0 0.0 0.00 0.01 0.01 98 1010.9
20190616082820 61 0.0 0.0 0.00 0.01 0.01 97 1011.1
20190616081807 61 0.0 0.0 0.00 0.01 0.01 97 1011.2
20190616080812 61 0.0 0.0 0.00 0.01 0.01 97 1011.2
20190616075816 61 0.0 0.0 0.00 0.01 0.01 97 1011.2
20190616074821 61 0.0 0.0 0.00 0.01 0.01 97 1011.2
20190616073820 61 0.0 0.0 0.01 0.01 0.01 97 1011.3
20190616072823 61 0.0 0.0 0.01 0.01 0.01 97 1011.2
20190616071807 61 0.0 0.0 0.01 0.01 0.01 97 1011.5
20190616070810 61 0.0 0.0 0.01 0.01 0.01 96 1011.5
20190616065813 61 0.0 0.0 0.01 0.01 0.01 96 1011.6
20190616064818 61 0.0 0.0 0.01 0.01 0.01 96 1011.6
20190616063816 61 0.0 0.0 0.00 0.00 0.00 95 1011.6
20190616062808 61 0.0 0.0 0.00 0.00 0.00 95 1011.6
20190616061813 62 0.0 0.0 0.00 0.00 0.00 95 1011.6
20190616060811 62 0.0 0.0 0.00 0.00 0.00 94 1011.5
20190616055810 62 0.0 0.0 0.00 0.00 0.00 93 1011.6
20190616054808 62 0.0 0.0 0.00 0.00 0.00 92 1011.6
20190616053807 62 0.0 0.0 0.00 0.00 0.00 92 1011.6
20190616052806 62 0.0 0.0 0.00 0.00 0.00 92 1011.6
20190616051822 62 0.0 0.0 0.00 0.00 0.00 92 1011.7
20190616050807 63 0.0 0.0 0.00 0.00 0.00 91 1011.8
20190616045812 63 0.0 0.0 0.00 0.00 0.00 89 1011.8
20190616044817 64 202 1.0 4.0 0.00 0.00 0.00 86 1011.8
20190616043822 66 210 5.0 9.0 0.00 0.00 0.00 79 1011.9
20190616042808 67 228 2.0 3.0 0.00 0.00 0.00 69 1011.5
20190616041813 66 221 2.0 5.0 0.00 0.00 0.00 71 1011.2
20190616040817 66 0.0 0.0 0.00 0.00 0.00 72 1011.3
20190616035822 66 0.0 0.0 0.00 0.00 0.00 73 1011.2
20190616034808 66 0.0 0.0 0.00 0.00 0.00 72 1011.2
20190616033813 67 0.0 0.0 0.00 0.00 0.00 69 1011.3
20190616032817 67 0.0 0.0 0.00 0.00 0.00 66 1011.5
20190616031822 68 0.0 0.0 0.00 0.00 0.00 65 1011.5
20190616030809 68 0.0 0.0 0.00 0.00 0.00 63 1011.5
20190616025814 68 0.0 0.0 0.00 0.00 0.00 65 1011.6
20190616024818 68 202 0.0 1.0 0.00 0.00 0.00 63 1011.6
20190616023822 68 0.0 0.0 0.00 0.00 0.00 62 1011.5
20190616022809 68 0.0 0.0 0.00 0.00 0.00 62 1011.7
20190616021813 69 0.0 0.0 0.00 0.00 0.00 60 1011.6
20190616020818 69 0.0 0.0 0.00 0.00 0.00 60 1011.7
20190616015822 69 0.0 0.0 0.00 0.00 0.00 59 1011.7
20190616014809 69 0.0 0.0 0.00 0.00 0.00 58 1011.8
20190616013814 70 0.0 0.0 0.00 0.00 0.00 58 1011.7
20190616012819 70 0.0 0.0 0.00 0.00 0.00 58 1011.9
20190616011805 70 189 0.0 2.0 0.00 0.00 0.00 57 1011.9
20190616010809 71 225 4.0 5.0 0.00 0.00 0.00 55 1011.7
20190616005814 71 163 2.0 2.0 0.00 0.00 0.00 55 1011.6
20190616004818 71 186 4.0 6.0 0.00 0.00 0.00 54 1011.6
20190616003805 71 258 3.0 4.0 0.00 0.00 0.00 53 1011.4
20190616002809 72 188 7.0 10.0 0.00 0.00 0.00 53 1011.5
20190616001814 71 191 4.0 7.0 0.00 0.00 0.00 54 1011.5
20190616000822 71 242 3.0 6.0 0.00 0.00 0.00 55 1011.6
20190615235816 70 191 1.0 3.0 0.00 0.00 0.00 58 1011.6
20190615234809 69 180 1.0 3.0 0.00 0.00 0.00 60 1011.5
20190615233814 68 247 1.0 3.0 0.00 0.00 0.00 65 1011.4
20190615232811 68 0.0 0.0 0.00 0.00 0.00 70 1011.4
20190615231809 69 0.0 0.0 0.00 0.00 0.00 68 1011.4
20190615230807 70 0.0 0.0 0.00 0.00 0.00 60 1011.2
20190615225806 70 0.0 0.0 0.00 0.00 0.00 62 1011.1
20190615224817 71 0.0 0.0 0.00 0.00 0.00 60 1011.1
20190615223821 71 0.0 0.0 0.00 0.00 0.00 56 1011.3
20190615222807 72 180 0.0 2.0 0.00 0.00 0.00 55 1011.2
20190615221812 72 0.0 0.0 0.00 0.00 0.00 53 1011.1
20190615220816 72 283 0.0 1.0 0.00 0.00 0.00 54 1011.3
20190615215821 71 236 3.0 5.0 0.00 0.00 0.00 55 1011.3
20190615214808 71 0.0 0.0 0.00 0.00 0.00 56 1011.4
20190615213812 72 202 1.0 2.0 0.00 0.00 0.00 55 1011.3
20190615212817 73 225 0.0 2.0 0.00 0.00 0.00 52 1011.3
20190615211822 74 225 0.0 2.0 0.00 0.00 0.00 49 1011.3
20190615210808 74 0.0 0.0 0.00 0.00 0.00 52 1011.2
20190615205813 75 0.0 0.0 0.00 0.00 0.00 53 1011.2
20190615204817 75 0.0 0.0 0.00 0.00 0.00 52 1011.3
20190615203821 76 0.0 0.0 0.00 0.00 0.00 52 1011.3
20190615202808 76 0.0 0.0 0.00 0.00 0.00 50 1011.5
20190615201813 77 202 0.0 3.0 0.00 0.00 0.00 48 1011.6
20190615200818 77 0.0 0.0 0.00 0.00 0.00 47 1011.6
20190615195805 77 0.0 0.0 0.00 0.00 0.00 46 1011.7
20190615194809 77 180 2.0 3.0 0.00 0.00 0.00 46 1011.8
20190615193814 78 180 2.0 4.0 0.00 0.00 0.00 46 1011.7
20190615192819 78 180 0.0 3.0 0.00 0.00 0.00 45 1011.8
20190615191806 79 180 4.0 5.0 0.00 0.00 0.00 43 1011.9
20190615190810 79 167 3.0 3.0 0.00 0.00 0.00 38 1012.0
20190615185814 79 202 1.0 2.0 0.00 0.00 0.00 44 1012.1
20190615184819 79 220 4.0 8.0 0.00 0.00 0.00 43 1012.1
20190615183805 81 164 3.0 4.0 0.00 0.00 0.00 44 1012.2
20190615182810 81 215 4.0 6.0 0.00 0.00 0.00 44 1012.2
20190615181814 81 178 4.0 5.0 0.00 0.00 0.00 43 1012.4
20190615180819 81 180 2.0 3.0 0.00 0.00 0.00 44 1012.5
20190615175805 80 180 5.0 6.0 0.00 0.00 0.00 45 1012.6
20190615174810 80 181 4.0 5.0 0.00 0.00 0.00 45 1012.7
20190615173815 80 191 4.0 6.0 0.00 0.00 0.00 45 1013.0
20190615172820 80 185 4.0 4.0 0.00 0.00 0.00 46 1013.2
20190615171807 79 167 2.0 3.0 0.00 0.00 0.00 47 1013.3
20190615170811 80 174 3.0 4.0 0.00 0.00 0.00 47 1013.6
20190615165814 79 180 3.0 4.0 0.00 0.00 0.00 47 1013.8
20190615164813 78 167 4.0 4.0 0.00 0.00 0.00 48 1013.9
20190615163805 78 203 4.0 5.0 0.00 0.00 0.00 48 1014.2
20190615162809 78 162 4.0 5.0 0.00 0.00 0.00 48 1014.4
20190615161808 78 159 3.0 4.0 0.00 0.00 0.00 48 1014.6
20190615160807 77 202 4.0 5.0 0.00 0.00 0.00 48 1014.7
20190615155805 76 196 3.0 4.0 0.00 0.00 0.00 49 1014.7
20190615154810 75 174 3.0 4.0 0.00 0.01 0.00 53 1014.7
20190615153814 73 166 2.0 3.0 0.00 0.01 0.00 55 1014.9
20190615152819 74 185 5.0 6.0 0.00 0.01 0.00 52 1015.2
20190615151806 72 166 3.0 4.0 0.00 0.01 0.00 56 1015.4
20190615150810 72 191 2.0 4.0 0.00 0.01 0.00 56 1015.5
20190615145814 72 191 4.0 5.0 0.00 0.01 0.00 56 1015.7
20190615144819 72 174 4.0 4.0 0.00 0.01 0.00 56 1015.8
20190615143806 71 180 3.0 6.0 0.00 0.01 0.00 58 1015.9
20190615142810 70 181 4.0 5.0 0.00 0.01 0.00 59 1016.2
20190615141815 70 135 3.0 5.0 0.00 0.01 0.00 61 1016.2
20190615140820 69 180 3.0 4.0 0.00 0.01 0.00 61 1016.2
20190615135806 68 188 4.0 5.0 0.00 0.01 0.00 62 1016.3
20190615134811 67 187 4.0 5.0 0.00 0.01 0.00 62 1016.4
20190615133815 68 112 0.0 2.0 0.00 0.01 0.00 63 1016.5
20190615132820 66 190 3.0 5.0 0.00 0.01 0.00 65 1016.9
20190615131807 64 180 2.0 2.0 0.00 0.01 0.00 69 1017.2
20190615130812 63 157 1.0 3.0 0.00 0.01 0.00 70 1017.2
20190615125817 62 112 1.0 4.0 0.00 0.01 0.00 73 1017.3
20190615124821 60 159 2.0 3.0 0.00 0.01 0.00 75 1017.4
20190615123808 60 112 0.0 4.0 0.00 0.01 0.00 76 1017.4